Broager, Denmark
Current Conditions -  °F | °C
As of 8:20 AM on Sunday 26 Oct 2014 (Local Time) from ETGG Reporting Station
Broken Clouds Broken Clouds  
Wind Chill: 50°   Ceiling: 4700
Heat Index: 50°   Visibility: 6mi
Dew Point: 48°   Wind: 15mph
Humidity: 94%   Direction: 190°S
Pressure: 30.09"   Gusts: NA
Location:  54.89°N, 9.68°E
Report Text: ETGG 260620Z 19013KT 9999 BKN047 10/09 Q1019 BLU
Loading
Personal Weather Stations






























Interactive Weather Map
Tropical Storm Tracking
New forecast layout! Learn more

10-Day Weather Forecast

Advertisements
Track Severe Weather on mobile